Regional Weather Roundup
Issued by NWS Burlington, VT

Current Version | Previous Version | Text Only | Print | Product List | Glossary On
Versions: 1 2 3 4 5 6 7 8 9 10 11 12 13 14 15 16 17 18 19 20 21 22 23 24 25 26 27 28 29 30 31 32 33 34 35 36 37 38 39 40 41 42 43 44 45 46 47 48 49 50
000
ASUS41 KBTV 250910
RWRBTV
VERMONT REGIONAL WEATHER ROUNDUP
NATIONAL WEATHER SERVICE BURLINGTON VT
500 AM EDT SUN SEP 25 2016

NOTE: "FAIR" INDICATES FEW OR NO CLOUDS BELOW 12,000 FEET WITH NO
SIGNIFICANT WEATHER AND/OR OBSTRUCTIONS TO VISIBILITY.

* THESE REPORTS ARE NOT UNDER NWS QUALITY CONTROL AND/OR DO NOT
  REPORT WEATHER SUCH AS PRECIPITATION AND FOG.

VTZ001>019-251000-
_____VERMONT_____


CITY           SKY/WX    TMP DP  RH WIND       PRES   REMARKS
BURLINGTON     CLEAR     39  35  86 E5        30.18S
MONTPELIER     CLEAR     41  34  76 W5        30.19R
MORRISVILLE    CLEAR     32  30  92 CALM      30.18R
LYNDONVILLE*   FAIR      38  35  89 W3        30.14R
MIDDLEBURY*    FAIR      38  38 100 CALM      30.18S
RUTLAND*       CLEAR     36  34  92 SE6       30.18R WCI  31
SPRINGFIELD    CLEAR     35  33  92 CALM      30.16S
HIGHGATE*      FAIR      38  37  95 CALM      30.18R
NEWPORT*       FAIR      41  35  78 NW3       30.14R
BENNINGTON     CLEAR     34  32  92 CALM      30.17R
SUTTON*          N/A     36 N/A N/A MISG        N/A

_____LAKE CHAMPLAIN_____


CITY           SKY/WX    TMP DP  RH WIND       PRES   REMARKS
BURTON ISLAND*   N/A     52  43  71 W5          N/A
COLCHESTER RF*   N/A     52  41  66 NW23        N/A
DIAMOND ISL*     N/A     50  37  62 NW5         N/A

$$

NYZ007-026>031-035-052-083-087-251000-
_____NORTHERN NEW YORK_____


CITY           SKY/WX    TMP DP  RH WIND       PRES   REMARKS
PLATTSBURGH    CLEAR     43  36  76 W6        30.18S
SARANAC LAKE   CLEAR     26  24  92 CALM      30.19R
MASSENA        CLEAR     37  34  89 CALM      30.24S
OGDENSBURG*    CLEAR     34  32  93 CALM      30.25R
POTSDAM*       CLEAR     34  34 100 CALM      30.24S
WATERTOWN      CLEAR     32  31  96 CALM      30.25R
FT DRUM        CLEAR     37  35  92 CALM      30.23S
ALBANY         PTCLDY    42  39  89 CALM      30.20R
GLENS FALLS    CLEAR     36  34  92 CALM      30.19R FOG

$$
NHZ002-005-011-251000-
_____NEW HAMPSHIRE_____


CITY           SKY/WX    TMP DP  RH WIND       PRES   REMARKS
LEBANON        CLEAR     37  35  92 CALM      30.15R
KEENE          FOG       37  37 100 CALM      30.16S VSB 1/4
MT WASHINGTON  FOG       23  23 100 NW48G63     N/A  VSB 0   WCI   2
PLYMOUTH       FAIR      41  35  79 NW6       30.12S
WHITEFIELD     CLOUDY    32  28  85 CALM      30.12S

$$

_____REGIONAL QUEBEC LOCATIONS_____


CITY           SKY/WX    TMP DP  RH WIND       PRES   REMARKS
MONTREAL       CLEAR     45  37  76 NW9       30.18R
QUEBEC CITY    MOCLDY    43  37  81 W13       30.07S
SHERBROOKE     PTCLDY    37  37 100 W3        30.11S

_____REGIONAL ONTARIO LOCATIONS_____


CITY           SKY/WX    TMP DP  RH WIND       PRES   REMARKS
OTTAWA         CLEAR     39  36  87 W7        30.24R

______KEY______
VSB  - VISIBILITY IN MILES
WCI  - WIND CHILL INDEX
HX   - HEAT INDEX
$$
NNNN




USA.gov is the U.S. government's official web portal to all federal, state and local government web resources and services.